{"data":{"norad_id":65323,"intl_designator":"2025-189A","name":"STARLINK-34899","alt_names":[],"object_type":"PAYLOAD","status":"ACTIVE","operator":null,"country":"US","launch_date":"2025-08-27","launch_site_code":"AFETR","launch_vehicle":null,"mission":null,"orbit_class":"UNKNOWN","rcs_meters":null,"size_class":null,"mass_kg":null,"dimensions":null,"purposes":["comms"],"wikipedia_slug":null,"has_3d_model":false,"image_url":null,"decayed_at":null,"tle_current":{"epoch":"2026-09-20T13:11:00.939552Z","epoch_age_seconds":113310,"freshness":"FRESH","line1":"1 65323U 25189A   26263.54931643  .00006291  00000+0  21427-3 0  9994","line2":"2 65323  53.1599  19.9959 0000923  67.9944 292.1156 15.31708638 60967","mean_motion":15.31708638,"eccentricity":9.23e-5,"inclination_deg":53.1599,"raan_deg":19.9959,"arg_perigee_deg":67.9944,"mean_anomaly_deg":292.1156,"bstar":0.00021427,"rev_number":6096,"period_min":94.012657778065,"perigee_km":470.08209694815,"apogee_km":471.34639488814,"semimajor_km":6848.8512459181,"source":"CELESTRAK","updated_at":"2026-09-21T09:00:35.568736Z"}}}